Regional Weather Roundup
Issued by NWS

Home | Current Version | Previous Version | Graphics & Text | Print | Product List | Glossary Off
Versions: 1 2 3 4 5 6 7 8 9 10 11 12 13 14 15 16 17 18 19 20 21 22 23 24 25 26 27 28 29 30 31 32 33 34 35 36 37 38 39 40 41 42 43 44 45 46 47 48 49 50

000
ASUS43 KDMX 251401
RWRIA

WEATHER ROUNDUP FOR IOWA
NATIONAL WEATHER SERVICE DES MOINES IA
900 AM CDT SUN JUN 25 2017

NOTE: "FAIR" INDICATES FEW OR NO CLOUDS BELOW 12,000 FEET WITH NO
SIGNIFICANT WEATHER AND/OR OBSTRUCTIONS TO VISIBILITY.

* - THESE STATIONS ARE NOT NWS STATIONS...THUS NOT UNDER NWS
QUALITY CONTROL.  THEY ALSO DO NOT REPORT WEATHER SUCH
AS PRECIPITATION OR FOG.

IAZ001>003-012>014-020>022-031>034-043>046-251500-
   NORTHWEST IOWA

CITY           SKY/WX    TMP DP  RH WIND       PRES   REMARKS
CARROLL *      SUNNY     61  45  55 NW21G28   30.28R
CHEROKEE *     SUNNY     58  46  63 NW10G18   30.29R
DENISON *      SUNNY     59  45  58 NW13G20   30.31S
LE MARS *      SUNNY     61  46  59 NW14      30.32R
ORANGE CITY *  SUNNY     57  48  72 NW14G20   30.29S
SHELDON *      SUNNY     59  46  63 NW13      30.27S
SIOUX CITY     SUNNY     60  47  61 NW13      30.31S
SPENCER        SUNNY     58  43  57 NW18G30   30.27R
STORM LAKE *   SUNNY     57  43  58 NW20G25   30.28S
$$

IAZ055>058-069>071-079>083-090>094-251500-
   SOUTHWEST IOWA

CITY           SKY/WX    TMP DP  RH WIND       PRES   REMARKS
ATLANTIC *     SUNNY     61  46  59 N16G24    30.30R
AUDUBON *      SUNNY     61  46  59 NW16G22   30.29F
CLARINDA *     MOSUNNY   64  45  48 NW14G20   30.33R
COUNCIL BLFS * SUNNY     61  45  55 NW16      30.31S
CRESTON *      SUNNY     61  46  59 NW15G22   30.29S
HARLAN  *      SUNNY     61  46  59 NW13G21   30.33S
LAMONI         SUNNY     63  46  54 NW15      30.28R
RED OAK *      MOSUNNY   63  45  51 NW15      30.31R
SHENANDOAH *   SUNNY     63  46  55 VRB7G13   30.33R
$$

IAZ047>049-059>061-072>074-084-251500-
   CENTRAL IOWA

CITY           SKY/WX    TMP DP  RH WIND       PRES   REMARKS
AMES           MOSUNNY   61  49  64 NW20      30.24S
ANKENY *       SUNNY     61  48  63 NW14G23   30.26S
BOONE *        MOSUNNY   59  46  63 NW18G25   30.24S
CHARITON *     SUNNY     61  48  63 NW13G20   30.25S
DES MOINES     MOSUNNY   62  46  55 NW16      30.25S
GRINNELL*      MOSUNNY   61  47  61 NW18G25   30.23S
KNOXVILLE *    SUNNY     61  46  59 NW13      30.23S
MARSHALLTOWN   MOSUNNY   60  48  64 NW17      30.21S
NEWTON *       SUNNY     61  48  63 NW15      30.23S
PELLA *        SUNNY     62  48  60 NW13G18   30.25S
PERRY *        PTSUNNY   60  48  63 NW13G18   30.26S
$$

IAZ004>006-015-016-023>025-035-036-251500-
   NORTH CENTRAL IOWA

CITY           SKY/WX    TMP DP  RH WIND       PRES   REMARKS
ALGONA *       SUNNY     57  43  58 NW18G26   30.24R
CLARION *        N/A     57  48  72 NW18G26   30.23R
ESTHERVILLE    SUNNY     55  44  66 NW16G28   30.25R
FORT DODGE *   SUNNY     57  45  62 NW14G22   30.26R
MASON CITY     CLOUDY    55  46  71 NW17G26   30.22R
FOREST CITY *  CLOUDY    54  39  58 NW17G28   30.21R
WEBSTER CITY * MOSUNNY   59  46  63 NW17G28   30.22S
IOWA FALLS *   PTSUNNY   59  48  66 W20G25    30.23S
$$

IAZ007>011-017>019-026>030-037>042-050>054-066-251500-
   NORTHEAST IOWA

CITY           SKY/WX    TMP DP  RH WIND       PRES   REMARKS
CEDAR RAPIDS   SUNNY     60  50  69 NW16      30.18S
CHARLES CITY * CLOUDY    54  50  87 W9        30.19S
CLINTON *      SUNNY     62  50  64 W14       30.16S
DECORAH *      CLOUDY    55  48  76 W9G16     30.14R
DUBUQUE        SUNNY     58  50  75 W14       30.16R
MONTICELLO *   MOSUNNY   61  52  72 W8G15     30.17R
OELWEIN *      PTSUNNY   57  50  77 NW16G24   30.18S
WATERLOO       PTSUNNY   59  47  64 NW14G28   30.18S
$$

IAZ064-065-067-068-078-251500-
   EAST CENTRAL IOWA

CITY           SKY/WX    TMP DP  RH WIND       PRES   REMARKS
DAVENPORT      MOSUNNY   61  50  67 W14       30.17S
IOWA CITY      MOSUNNY   62  49  62 NW10G18   30.21R
MT. PLEASANT * SUNNY     63  45  52 NW9       30.21S
MUSCATINE *    MOSUNNY   64  48  55 NW12G18   30.20R
QUAD CITIES    MOSUNNY   65  49  56 W10       30.17S
$$

IAZ062-063-075>077-085>089-095>099-251500-
   SOUTHEAST IOWA

CITY           SKY/WX    TMP DP  RH WIND       PRES   REMARKS
BURLINGTON     SUNNY     65  46  50 NW10      30.20R
FAIRFIELD *    SUNNY     63  45  51 NW14      30.21S
FORT MADISON * SUNNY     66  46  48 NW10G17   30.21S
KEOKUK *       SUNNY     66  50  55 W9        30.21S
OSKALOOSA *      N/A     62  47  58 NW14      30.23S
OTTUMWA        SUNNY     64  47  53 NW14      30.22S
WASHINGTON *   SUNNY     63  48  59 NW15      30.22S
$$

ABBREVIATIONS USED IN REMARKS
   TC - TEMPERATURES IN CELSIUS
  WCI - WIND CHILL INDEX
   HX - HEAT INDEX
  VSB - VISIBILITY
$$




USA.gov is the U.S. government's official web portal to all federal, state and local government web resources and services.